Погода в Кокуитламе

Канада     49°22′55″N   122°47′27″W
темп.,
°C
ветер,
м/с
пор.,
м/с
влажн.,
%
обл.,
%
осадки,
мм/ч
давл.,
гПа
погр.,
м
17 апреля, сб
сб1723:00+9с34605 0.0 102453
02:00+8с34610 0.0 102350
05:00+8с33600 0.0 102442
08:00+11с23545 0.0 102367
11:00+19ююз11320 0.0 1022981
14:00+21юз21310 0.0 10211867
17:00+20юз22351 0.0 10211698
20:00+13ссз11620 0.0 102113
18 апреля, вс
вс1823:00+10с22600 0.0 102234
02:00+9с22645 0.0 102229
05:00+8с2267100 0.0 102227
08:00+12ссв115832 0.0 102187
11:00+18ю214296 0.0 10201102
14:00+20ююз233745 0.0 10192069
17:00+19ююз233916 0.0 10181749
20:00+12вюв117361 0.1 101911
19 апреля, пн
пн1923:00+10ссв35692 0.1 1022112
02:00+7ссв35680 0.0 102486
05:00+6ссв35670 0.0 102578
08:00+9ссв23523 0.0 1025148
11:00+15юв113121 0.0 10231318
14:00+16ююз333531 0.0 10221952
17:00+16ююз334032 0.0 10201763
20:00+10ююз116580 0.0 102125
20 апреля, вт
вт2023:00+9ссв116985 0.0 102112
02:00+7с22752 0.0 102126
05:00+6с22752 0.0 102124
08:00+10ссв11603 0.0 1020147
11:00+15ююз21443 0.0 10181363
14:00+17ююз334188 0.0 10162094
17:00+16ююз324318 0.0 10151777
20:00+10ююз11725 0.0 101511
21 апреля, ср
ср2123:00+8с11775 0.0 101513
02:00+7с11815 0.0 101510
05:00+6св00885 0.0 101510
08:00+8ююв11745 0.0 1015259
11:00+12ю32579 0.0 10131015
14:00+12ю336577 0.1 10131052
17:00+12ююз236854 0.3 1012774
20:00+8ю238926 0.3 1012116